Change the Weather History Date:

Thursday, February 13, 2014

  Actual Average (KISP) Record (KISP)
Temperature  
Mean Temperature 34 °F 32 °F  
Max Temperature 36 °F 40 °F 56 °F (2008)
Min Temperature 32 °F 25 °F 9 °F (2015)
Degree Days  
Heating Degree Days 31 33  
Month to date heating degree days 435  
Since 1 July heating degree days 3427  
Cooling Degree Days 0 0  
Month to date cooling degree days 0  
Year to date cooling degree days 0  
Moisture  
Dew Point 32 °F    
Average Humidity 92    
Maximum Humidity 97    
Minimum Humidity 75    
Precipitation  
Precipitation 1.61 in 0.10 in 2.22 in (2008)
Month to date precipitation 1.40  
Year to date precipitation 5.04  
Snow  
Snow 0.00 in 0.20 in 8.10 in (2014)
Month to date snowfall 3.1  
Since 1 July snowfall 15.7  
Snow Depth -    
Sea Level Pressure  
Sea Level Pressure 29.71 in    
Wind  
Wind Speed 8 mph (NE)    
Max Wind Speed 17 mph    
Max Gust Speed 31 mph    
Visibility 3 miles    
Events Fog , Rain , Snow    
T = Trace of Precipitation, MM = Missing Value Source: NWS Daily Summary

Daily Weather History Graph

Daily Weather History Graph

Search for Another Location

Airport or City:

Trip Planner

Search our weather history database for the weather conditions in past years. The results will help you decide how hot, cold, wet, or windy it might be!

Date:

Astronomy

Feb. 13, 2014 Rise Set
Actual Time 6:48 AM EST 5:23 PM EST
Civil Twilight 6:19 AM EST 5:51 PM EST
Nautical Twilight 5:47 AM EST 6:24 PM EST
Astronomical Twilight 5:15 AM EST 6:56 PM EST
Moon 4:29 PM EST (2/13) 5:39 AM EST (2/13)
Length of Visible Light 11h 32m
Length of Day
10h 35m
Waxing Gibbous, 98% of the Moon is Illuminated
Feb 13
Waxing Gibbous
Feb 14
Full
Feb 22
Last Quarter
Mar 1
New
Mar 8
First Quarter

Hourly Weather History & Observations

Time (EST) Temp. Windchill Dew Point Humidity Pressure Visibility Wind Dir Wind Speed Gust Speed Precip Events Conditions
12:56 AM 34.0 °F 28.8 °F 27.0 °F 75% 30.29 in 4.0 mi Variable 5.8 mph - 0.00 in Snow Light Snow
1:25 AM 33.1 °F 26.9 °F 28.0 °F 82% 30.27 in 1.8 mi Variable 6.9 mph - 0.00 in Snow Light Snow
1:39 AM 33.1 °F 27.7 °F 28.0 °F 82% 30.26 in 2.0 mi ESE 5.8 mph - 0.00 in Snow Light Snow
1:56 AM 33.1 °F 28.7 °F 28.9 °F 85% 30.26 in 2.0 mi Variable 4.6 mph - 0.00 in Snow Light Snow
2:06 AM 33.1 °F 26.9 °F 28.9 °F 85% 30.24 in 2.5 mi East 6.9 mph - 0.00 in Snow Light Snow
2:19 AM 33.1 °F 28.7 °F 30.0 °F 89% 30.23 in 3.0 mi Variable 4.6 mph - 0.00 in Snow Light Snow
2:42 AM 33.1 °F 27.7 °F 30.0 °F 89% 30.22 in 2.5 mi Variable 5.8 mph - 0.00 in Snow Light Snow
2:56 AM 33.1 °F 27.7 °F 30.0 °F 89% 30.22 in 2.0 mi Variable 5.8 mph - 0.00 in Snow Light Snow
3:31 AM 33.1 °F 26.9 °F 30.9 °F 92% 30.20 in 1.8 mi Variable 6.9 mph - 0.00 in Snow Light Snow
3:56 AM 33.1 °F 25.5 °F 30.9 °F 92% 30.19 in 2.0 mi East 9.2 mph - 0.00 in Snow Light Snow
4:07 AM 33.1 °F 26.1 °F 30.9 °F 92% 30.18 in 1.8 mi East 8.1 mph - 0.00 in Snow Light Snow
4:14 AM 33.1 °F 26.9 °F 30.9 °F 92% 30.18 in 2.0 mi Variable 6.9 mph - 0.00 in Snow Light Snow
4:37 AM 33.1 °F 27.7 °F 30.9 °F 92% 30.17 in 1.2 mi Variable 5.8 mph - 0.00 in Snow Light Snow
4:56 AM 33.1 °F 27.7 °F 30.9 °F 92% 30.17 in 1.2 mi Variable 5.8 mph - 0.00 in Snow Light Snow
5:56 AM 32.0 °F 25.6 °F 30.0 °F 92% 30.12 in 1.5 mi Variable 6.9 mph - 0.00 in Snow Light Snow
6:56 AM 32.0 °F - 30.0 °F 92% 30.05 in 1.8 mi North - - 0.00 in Snow Light Snow
7:10 AM 32.0 °F 24.2 °F 30.0 °F 92% 30.04 in 2.0 mi ENE 9.2 mph 19.6 mph 0.00 in Snow Light Snow
7:27 AM 32.0 °F 25.6 °F 30.0 °F 92% 30.03 in 0.8 mi Variable 6.9 mph 19.6 mph 0.00 in Snow Light Snow
7:43 AM 32.0 °F 24.2 °F 30.0 °F 92% 30.02 in 0.2 mi NE 9.2 mph - 0.00 in Fog , Snow Heavy Snow
7:56 AM 32.0 °F 23.6 °F 30.0 °F 92% 30.01 in 0.5 mi NE 10.4 mph 20.7 mph 0.00 in Fog , Snow Snow
8:41 AM 33.1 °F 26.9 °F 30.9 °F 92% 29.96 in 0.2 mi Variable 6.9 mph 17.3 mph 0.00 in Fog , Snow Heavy Snow
8:48 AM 33.1 °F 26.9 °F 30.9 °F 92% 29.95 in 0.5 mi Variable 6.9 mph 17.3 mph 0.00 in Fog , Snow Snow
8:56 AM 33.1 °F 25.5 °F 30.9 °F 92% 29.94 in 0.5 mi ENE 9.2 mph 18.4 mph 0.00 in Fog , Snow Snow
9:56 AM 33.1 °F 24.4 °F 30.9 °F 92% 29.81 in 0.8 mi NE 11.5 mph 23.0 mph 0.00 in Snow Light Snow
10:03 AM 33.1 °F 24.9 °F 30.9 °F 92% 29.79 in 1.8 mi NE 10.4 mph 23.0 mph 0.00 in Snow Light Snow
10:14 AM 33.1 °F 24.4 °F 32.0 °F 96% 29.77 in 2.0 mi NE 11.5 mph 25.3 mph N/A Rain Heavy Rain
10:23 AM 34.0 °F 26.6 °F 32.0 °F 92% 29.77 in 3.0 mi NE 9.2 mph 23.0 mph N/A Rain Rain
10:56 AM 35.1 °F 26.4 °F 33.1 °F 92% 29.75 in 3.0 mi NE 12.7 mph 26.5 mph N/A Rain Rain
11:07 AM 35.1 °F 27.9 °F 33.1 °F 92% 29.74 in 2.5 mi NNE 9.2 mph 25.3 mph N/A Rain Rain
11:21 AM 35.1 °F 25.5 °F 33.1 °F 92% 29.71 in 3.0 mi NNE 15.0 mph 27.6 mph N/A Rain Rain
11:28 AM 35.1 °F 26.9 °F 33.1 °F 92% 29.71 in 3.0 mi NNE 11.5 mph 27.6 mph N/A Rain Rain
11:56 AM 35.1 °F 26.4 °F 33.1 °F 92% 29.67 in 2.0 mi NNE 12.7 mph 27.6 mph N/A Rain Rain
12:03 PM 35.1 °F 26.4 °F 33.1 °F 92% 29.65 in 1.8 mi NNE 12.7 mph 25.3 mph 0.00 in Rain Rain
12:13 PM 35.1 °F 25.9 °F 33.1 °F 92% 29.64 in 2.0 mi NNE 13.8 mph 28.8 mph N/A Rain Rain
12:39 PM 35.1 °F 26.9 °F 33.1 °F 92% 29.59 in 1.8 mi NNE 11.5 mph 26.5 mph N/A Rain Rain
12:53 PM 35.6 °F 25.5 °F 33.8 °F 93% 29.57 in 2.0 mi NNE 17.3 mph 31.1 mph N/A Rain Light Rain
12:56 PM 36.0 °F 28.0 °F 34.0 °F 93% 29.57 in 2.0 mi NNE 11.5 mph 31.1 mph N/A Rain Light Rain
1:56 PM 36.0 °F 28.5 °F 34.0 °F 93% 29.50 in 3.0 mi NNE 10.4 mph 24.2 mph N/A Rain Light Rain
2:35 PM 36.0 °F 28.5 °F 35.1 °F 97% 29.45 in 3.0 mi NNE 10.4 mph 21.9 mph 0.08 in Rain Light Rain
2:56 PM 36.0 °F 29.6 °F 35.1 °F 97% 29.42 in 3.0 mi NNE 8.1 mph 23.0 mph 0.21 in Rain Light Rain
3:56 PM 36.0 °F 28.5 °F 34.0 °F 93% 29.38 in 2.5 mi NNE 10.4 mph 28.8 mph 0.36 in Rain Light Rain
4:56 PM 35.1 °F 25.9 °F 33.1 °F 92% 29.33 in 2.5 mi NNE 13.8 mph 25.3 mph 0.18 in Rain Light Rain
5:18 PM 35.1 °F 25.5 °F 33.1 °F 92% 29.32 in 3.0 mi North 15.0 mph 23.0 mph 0.05 in Rain Light Rain
5:56 PM 35.1 °F 26.4 °F 33.1 °F 92% 29.29 in 4.0 mi NNE 12.7 mph 26.5 mph 0.14 in Rain Light Rain
6:56 PM 35.1 °F 26.4 °F 33.1 °F 92% 29.24 in 5.0 mi NNE 12.7 mph 24.2 mph 0.21 in Rain Light Rain
7:56 PM 35.1 °F 25.2 °F 33.1 °F 92% 29.17 in 9.0 mi NNE 16.1 mph 28.8 mph 0.06 in Rain Light Rain
8:56 PM 35.1 °F 27.9 °F 33.1 °F 92% 29.08 in 2.0 mi NNE 9.2 mph 24.2 mph 0.08 in Rain Heavy Rain
9:09 PM 35.1 °F 26.4 °F 33.1 °F 92% 29.06 in 5.0 mi NE 12.7 mph 31.1 mph 0.05 in Rain Rain
9:44 PM 35.1 °F 29.3 °F 33.1 °F 92% 29.08 in 1.8 mi Variable 6.9 mph 24.2 mph 0.15 in Rain Heavy Rain
9:51 PM 35.6 °F 29.2 °F 33.8 °F 93% 29.10 in 3.0 mi NE 8.1 mph 23.0 mph 0.20 in Rain Light Rain
9:52 PM 35.1 °F 28.6 °F 33.1 °F 92% 29.11 in 4.0 mi NNE 8.1 mph 23.0 mph 0.20 in Rain Light Rain
10:19 PM 35.1 °F 31.0 °F 34.0 °F 96% 29.10 in 6.0 mi Variable 4.6 mph - 0.07 in Rain Rain
10:56 PM 34.0 °F 24.2 °F 33.1 °F 96% 29.00 in 9.0 mi NNE 15.0 mph 23.0 mph 0.15 in Rain Light Rain
11:16 PM 34.0 °F 26.0 °F 32.0 °F 92% 28.97 in 10.0 mi North 10.4 mph 24.2 mph 0.01 in   Overcast
11:27 PM 34.0 °F 25.5 °F 33.1 °F 96% 28.98 in 10.0 mi North 11.5 mph 18.4 mph 0.02 in   Overcast
11:56 PM 34.0 °F 27.2 °F 33.1 °F 96% 28.99 in 10.0 mi North 8.1 mph 17.3 mph 0.02 in   Overcast